• In Uzbekistan
  • List of Countries
  • For 7 days
  • Water Temperature
  • Weather Map
  • Weather Widgets
  • user-avatar
    Login

    Hourly Weather Bregenz

    Today, 13 November, Wednesday

    Time Temperature Precipitation Wind Pressure Humidity
    00:00 -3°C° 0.1 mm 1 mps 634 mmHg 95%
    01:00 -3°C° 0.1 mm 1 mps 634 mmHg 95%
    02:00 -3°C° 0.2 mm 1 mps 634 mmHg 95%
    03:00 -4°C° 0.2 mm 0 mps 634 mmHg 95%
    04:00 -4°C° 0.2 mm 0 mps 634 mmHg 96%
    05:00 -3°C° 0.1 mm 1 mps 634 mmHg 96%
    06:00 -3°C° 0.1 mm 1 mps 634 mmHg 96%
    07:00 -3°C° 0.1 mm 1 mps 634 mmHg 96%
    08:00 -2°C° 0.1 mm 1 mps 634 mmHg 95%
    09:00 -2°C° 0.1 mm 1 mps 634 mmHg 94%
    10:00 -2°C° 0.1 mm 1 mps 634 mmHg 93%
    11:00 -3°C° 0.1 mm 2 mps 635 mmHg 90%
    12:00 -3°C° 0.1 mm 2 mps 635 mmHg 88%
    13:00 -2°C° 0.1 mm 2 mps 635 mmHg 86%
    14:00 -3°C° 0 mm 2 mps 635 mmHg 87%
    15:00 -1°C° 0 mm 1 mps 635 mmHg 87%
    16:00 -1°C° 0 mm 1 mps 635 mmHg 88%
    17:00 -3°C° 0 mm 1 mps 635 mmHg 88%
    18:00 -4°C° 0 mm 1 mps 635 mmHg 89%
    19:00 -7°C° 0 mm 2 mps 635 mmHg 89%
    20:00 -8°C° 0 mm 2 mps 635 mmHg 87%
    21:00 -8°C° 0 mm 2 mps 635 mmHg 85%
    22:00 -9°C° 0 mm 2 mps 635 mmHg 83%
    23:00 -9°C° 0 mm 2 mps 634 mmHg 82%

    Tomorrow, 14 November, Thursday

    Time Temperature Precipitation Wind Pressure Humidity
    00:00 -9°C° 0 mm 2 mps 634 mmHg 80%
    01:00 -9°C° 0 mm 2 mps 634 mmHg 78%
    02:00 -9°C° 0 mm 2 mps 634 mmHg 77%
    03:00 -10°C° 0 mm 2 mps 634 mmHg 75%
    04:00 -10°C° 0 mm 2 mps 633 mmHg 73%
    05:00 -9°C° 0 mm 2 mps 634 mmHg 73%
    06:00 -9°C° 0 mm 2 mps 634 mmHg 73%
    07:00 -8°C° 0 mm 2 mps 634 mmHg 74%
    08:00 -7°C° 0 mm 2 mps 634 mmHg 72%
    09:00 -5°C° 0 mm 2 mps 635 mmHg 71%
    10:00 -3°C° 0 mm 2 mps 636 mmHg 69%
    11:00 -2°C° 0 mm 2 mps 636 mmHg 70%
    12:00 -1°C° 0 mm 2 mps 636 mmHg 71%
    13:00 -1°C° 0 mm 2 mps 636 mmHg 72%
    14:00 -1°C° 0 mm 2 mps 635 mmHg 74%
    15:00 -2°C° 0 mm 2 mps 635 mmHg 77%
    16:00 -2°C° 0 mm 2 mps 634 mmHg 80%
    17:00 -4°C° 0 mm 2 mps 634 mmHg 80%
    18:00 -5°C° 0 mm 2 mps 633 mmHg 81%
    19:00 -6°C° 0 mm 2 mps 633 mmHg 82%
    20:00 -6°C° 0 mm 2 mps 633 mmHg 82%
    21:00 -6°C° 0 mm 2 mps 632 mmHg 83%
    22:00 -6°C° 0 mm 2 mps 632 mmHg 83%
    23:00 -6°C° 0.1 mm 2 mps 631 mmHg 85%

    Day after tomorrow, 15 November, Friday

    Time Temperature Precipitation Wind Pressure Humidity
    00:00 -6°C° 0.1 mm 2 mps 631 mmHg 87%
    01:00 -6°C° 0.1 mm 2 mps 631 mmHg 88%
    02:00 -5°C° 0.3 mm 2 mps 630 mmHg 90%
    03:00 -5°C° 0.3 mm 2 mps 630 mmHg 91%
    04:00 -4°C° 0.3 mm 2 mps 630 mmHg 93%
    05:00 -4°C° 0.8 mm 2 mps 631 mmHg 93%
    06:00 -4°C° 0.8 mm 2 mps 631 mmHg 93%
    07:00 -4°C° 0.8 mm 2 mps 632 mmHg 94%
    08:00 -3°C° 0.4 mm 2 mps 632 mmHg 93%
    09:00 -3°C° 0.4 mm 2 mps 633 mmHg 92%
    10:00 -3°C° 0.4 mm 2 mps 634 mmHg 92%
    11:00 0°C° 0.5 mm 1 mps 634 mmHg 91%
    12:00 0°C° 0.5 mm 1 mps 634 mmHg 90%
    13:00 +1°C° 0.5 mm 1 mps 635 mmHg 89%
    14:00 0°C° 0.5 mm 1 mps 635 mmHg 91%
    15:00 -1°C° 0.5 mm 0 mps 634 mmHg 92%
    16:00 -2°C° 0.5 mm 0 mps 634 mmHg 94%
    17:00 -2°C° 0.2 mm 0 mps 634 mmHg 94%
    18:00 -2°C° 0.2 mm 0 mps 635 mmHg 95%
    19:00 -3°C° 0.2 mm 0 mps 635 mmHg 96%
    20:00 -3°C° 0 mm 0 mps 635 mmHg 96%
    21:00 -3°C° 0 mm 1 mps 635 mmHg 95%
    22:00 -3°C° 0 mm 1 mps 636 mmHg 95%
    23:00 -3°C° 0 mm 1 mps 636 mmHg 93%

    16 November, Saturday

    Time Temperature Precipitation Wind Pressure Humidity
    00:00 -4°C° 0 mm 1 mps 636 mmHg 92%
    01:00 -4°C° 0 mm 1 mps 636 mmHg 91%
    02:00 -4°C° 0 mm 1 mps 637 mmHg 90%
    03:00 -4°C° 0 mm 1 mps 637 mmHg 89%
    04:00 -4°C° 0 mm 1 mps 637 mmHg 88%
    05:00 -4°C° 0 mm 1 mps 637 mmHg 87%
    06:00 -7°C° 0 mm 2 mps 638 mmHg 86%
    07:00 -7°C° 0 mm 2 mps 638 mmHg 85%
    08:00 -5°C° 0 mm 2 mps 639 mmHg 84%
    09:00 -4°C° 0 mm 2 mps 640 mmHg 82%
    10:00 0°C° 0 mm 1 mps 641 mmHg 81%
    11:00 +1°C° 0 mm 1 mps 641 mmHg 81%
    12:00 +2°C° 0 mm 1 mps 641 mmHg 82%
    13:00 +2°C° 0 mm 1 mps 641 mmHg 83%
    14:00 +2°C° 0 mm 1 mps 641 mmHg 84%
    15:00 +1°C° 0 mm 1 mps 641 mmHg 86%
    16:00 0°C° 0 mm 1 mps 640 mmHg 87%
    17:00 -1°C° 0 mm 1 mps 640 mmHg 87%
    18:00 -2°C° 0 mm 1 mps 640 mmHg 88%
    19:00 -2°C° 0 mm 1 mps 640 mmHg 88%
    20:00 -2°C° 0 mm 1 mps 640 mmHg 87%
    21:00 -2°C° 0 mm 1 mps 640 mmHg 86%
    22:00 -2°C° 0 mm 1 mps 640 mmHg 86%
    23:00 -2°C° 0 mm 1 mps 639 mmHg 86%

    17 November, Sunday

    Time Temperature Precipitation Wind Pressure Humidity
    00:00 -2°C° 0 mm 1 mps 639 mmHg 86%
    01:00 -2°C° 0 mm 1 mps 639 mmHg 87%
    02:00 -3°C° 0 mm 1 mps 638 mmHg 87%
    03:00 -3°C° 0 mm 1 mps 638 mmHg 88%
    04:00 -5°C° 0 mm 0 mps 637 mmHg 89%
    05:00 -4°C° 0 mm 1 mps 637 mmHg 89%
    06:00 -4°C° 0 mm 1 mps 636 mmHg 89%
    07:00 -6°C° 0 mm 1 mps 636 mmHg 89%
    08:00 -5°C° 0 mm 0 mps 636 mmHg 88%
    09:00 -3°C° 0 mm 0 mps 637 mmHg 86%
    10:00 -2°C° 0 mm 0 mps 637 mmHg 84%
    11:00 -1°C° 0 mm 1 mps 636 mmHg 84%
    12:00 0°C° 0 mm 1 mps 636 mmHg 85%
    13:00 0°C° 0 mm 1 mps 635 mmHg 86%
    14:00 0°C° 0.2 mm 1 mps 635 mmHg 88%
    15:00 0°C° 0.2 mm 1 mps 635 mmHg 90%
    16:00 -1°C° 0.2 mm 1 mps 634 mmHg 92%
    17:00 -1°C° 0.3 mm 1 mps 634 mmHg 93%
    18:00 -1°C° 0.3 mm 1 mps 634 mmHg 95%
    19:00 -2°C° 0.3 mm 1 mps 634 mmHg 96%
    20:00 -2°C° 0.1 mm 1 mps 634 mmHg 96%
    21:00 -3°C° 0.1 mm 1 mps 634 mmHg 95%
    22:00 -3°C° 0.1 mm 1 mps 634 mmHg 95%
    23:00 -3°C° 0 mm 1 mps 634 mmHg 94%

    18 November, Monday

    Time Temperature Precipitation Wind Pressure Humidity
    00:00 -3°C° 0 mm 1 mps 634 mmHg 93%
    01:00 -3°C° 0 mm 1 mps 633 mmHg 92%
    02:00 -3°C° 0 mm 1 mps 634 mmHg 92%
    03:00 -3°C° 0 mm 1 mps 634 mmHg 92%
    04:00 -3°C° 0 mm 1 mps 634 mmHg 92%
    05:00 -3°C° 0.1 mm 1 mps 635 mmHg 92%
    06:00 -2°C° 0.1 mm 1 mps 635 mmHg 93%
    07:00 -2°C° 0.1 mm 1 mps 636 mmHg 93%
    08:00 -1°C° 0.1 mm 1 mps 636 mmHg 93%
    09:00 -2°C° 0.1 mm 0 mps 637 mmHg 93%
    10:00 -1°C° 0.1 mm 0 mps 638 mmHg 94%
    11:00 -1°C° 0 mm 0 mps 638 mmHg 93%
    12:00 0°C° 0 mm 0 mps 638 mmHg 92%
    13:00 +1°C° 0 mm 1 mps 639 mmHg 92%
    14:00 +1°C° 0 mm 1 mps 639 mmHg 93%
    15:00 +1°C° 0 mm 1 mps 639 mmHg 94%
    16:00 +1°C° 0 mm 1 mps 639 mmHg 95%
    17:00 0°C° 0 mm 1 mps 639 mmHg 95%
    18:00 0°C° 0 mm 1 mps 640 mmHg 95%
    19:00 -2°C° 0 mm 0 mps 640 mmHg 94%
    20:00 -1°C° 0 mm 1 mps 640 mmHg 94%
    21:00 -1°C° 0 mm 1 mps 640 mmHg 93%
    22:00 -1°C° 0 mm 1 mps 640 mmHg 92%
    23:00 -1°C° 0 mm 1 mps 640 mmHg 91%
    Show more